Regional Weather Roundup
Issued by NWS Upton, NY

Current Version | Previous Version | Text Only | Print | Product List | Glossary On
Versions: 1 2 3 4 5 6 7 8 9 10 11 12 13 14 15 16 17 18 19 20 21 22 23 24 25 26 27 28 29 30 31 32 33 34 35 36 37 38 39 40 41 42 43 44 45 46 47 48 49 50
000
ASUS41 KOKX 231904
RWROKX

REGIONAL WEATHER ROUNDUP
NATIONAL WEATHER SERVICE NEW YORK NY
300 PM EDT SAT JUL 23 2016

NOTE: "FAIR" INDICATES FEW OR NO CLOUDS BELOW 12,000 FEET WITH NO
SIGNIFICANT WEATHER AND/OR OBSTRUCTIONS TO VISIBILITY.

NYZ071-072-176-178-NJZ106-104-232000-
NEW YORK CITY METRO AREA

CITY           SKY/WX    TMP DP  RH WIND       PRES   REMARKS
Central Park   SUNNY     94  55  26 VRB7      29.85S HX  92
LaGuardia APRT MOSUNNY   95  57  27 W16G22    29.81S HX  94
Kennedy INTL   MOSUNNY   97  56  25 W15       29.83S HX  95
Newark/Liberty MOSUNNY   97  57  26 W13G26    29.82S HX  96
BRNX BOT. GARD   N/A     95  54  24 W22       29.81F HX  93
Wall St Helipt MOCLDY    93  61  33 W9G16     29.83F HX  93
Teterboro      SUNNY     95  53  24 W15G22    29.81S HX  92
$$

NYZ177-179-078>081-232000-
LONG ISLAND NEW YORK

CITY           SKY/WX    TMP DP  RH WIND       PRES   REMARKS
FARMINGDALE    MOSUNNY   94  57  28 NW13G22   29.82S HX  92
ISLIP          MOSUNNY   96  57  27 NW14G23   29.81S HX  95
SHIRLEY        SUNNY     96  57  27 W15G22    29.82S HX  95
RIVERHEAD      NOT AVBL
WESTHAMPTON    MOSUNNY   96  55  25 NW14G21   29.82S HX  94
SOUTHAMPTON      N/A     93  61  33 NW10      29.77S HX  93
BRIDGEHAMPTON    N/A     93  66  40 E3        29.80S HX  96
EAST HAMPTON   FAIR      91  61  35 W13G20    29.80S HX  91
MONTAUK POINT    N/A     87  64  46 W14G23    29.80F
$$

NYZ052-065-067-232000-
HUDSON VALLEY

CITY           SKY/WX    TMP DP  RH WIND       PRES   REMARKS
WHITE PLAINS   MOSUNNY   94  56  27 NW13      29.83S HX  92
NEWBURGH       MOSUNNY   91  61  35 NW10G20   29.85F HX  91
MONTGOMERY     MOSUNNY   94  61  33 NW10      29.83F HX  94
POUGHKEEPSIE   MOSUNNY   95  56  26 W15G26    29.80F HX  93
ALBANY         PTSUNNY   91  58  32 W15G22    29.79F HX  90
$$

NJZ001-105-106-008-010-013-015-019>022-104-232000-
NEW JERSEY

CITY           SKY/WX    TMP DP  RH WIND       PRES   REMARKS
NEWARK/LIBERTY MOSUNNY   97  57  26 W13G26    29.82S HX  96
TETERBORO      SUNNY     95  53  24 W15G22    29.81S HX  92
CALDWELL       SUNNY     95  55  26 NW10G23   29.83S HX  93
MORRISTOWN     MOSUNNY   93  57  29 W10G24    29.83F HX  92
SOMERVILLE     MOSUNNY   95  58  28 W9        29.83F HX  94
SUSSEX         MOSUNNY   92  55  28 VRB6G20   29.86S HX  90
ANDOVER          N/A     92  52  25 VRB6G20   29.86S
TRENTON        SUNNY     95  56  26 W9        29.85F HX  93
MILLVILLE      SUNNY     96  69  41 W9G18     29.88F HX 102
ATLANTIC CITY  PTSUNNY   93  70  46 W8        29.86F HX  99
WRIGHTSTOWN    MOSUNNY   95  63  34 NW10      29.82F HX  96
TOMS RIVER     MOSUNNY   97  70  41 W12G17    29.85S HX 103
BELMAR         SUNNY     96  60  30 W16G23    29.85F HX  96
$$

PAZ047>061-062-071-232000-
EASTERN PENNSYLVANIA

CITY           SKY/WX    TMP DP  RH WIND       PRES   REMARKS
PHILADELPHIA   MOSUNNY   95  66  38 W17G23    29.86F HX  98
ALLENTOWN      SUNNY     95  54  25 W10G23    29.87F HX  93
SCRANTON       PTSUNNY   92  54  27 NW14      29.89S HX  90
$$

CTZ002-004>006-009-010-012-RIZ004-006-007-MAZ004-011-015-232000-
SOUTHERN NEW ENGLAND
 IN CT

CITY           SKY/WX    TMP DP  RH WIND       PRES   REMARKS
BRADLEY INTL   MOSUNNY   95  56  26 W20G28    29.77F HX  93
HARTFORD       SUNNY     97  60  29 NW10G20   29.77F HX  97
DANBURY        MOSUNNY   89  58  34 W10G21    29.84S
WTRBRY/OXFORD  NOT AVBL
BRIDGEPORT     MOSUNNY   96  58  27 W10G21    29.80S HX  95
MERIDEN        MOSUNNY   94  59  31 NW8       29.79F HX  93
NEW HAVEN      MOSUNNY   87  65  47 SW8       29.80F
CHESTER        MOCLDY    91  59  33 NW9G16    29.81S HX  90
GROTON         MOSUNNY   91  64  40 W16G24    29.78S HX  92
WILLIMANTIC    NOT AVBL

 IN RI

CITY           SKY/WX    TMP DP  RH WIND       PRES   REMARKS
PROVIDENCE     MOSUNNY   92  62  36 W15G23    29.76F HX  92
BLOCK ISLAND   SUNNY     84  66  54 W17G23    29.80R
WESTERLY       MOSUNNY   88  61  40 SW17G28   29.78F

 IN MA

CITY           SKY/WX    TMP DP  RH WIND       PRES   REMARKS
BOSTON         PTSUNNY   83  62  49 E13G18    29.72S
WORCESTER      MOSUNNY   88  52  29 W16G26    29.80F
WESTFIELD      SUNNY     94  53  25 W17G25    29.77F HX  91
PROVINCETOWN   PTSUNNY   87  66  49 CALM      29.75S
NANTUCKET      SUNNY     80  68  66 W18       29.77S
$$

ANZ330-335-338-340-345-350-353-355-232000-
COASTAL MARINE OBSERVATIONS


STATION/POSITION TIME  SKY/WX   TEMP    WIND        PRES    VSBY  WAVE
                                AIR SEA DIR/SP/G                  HT/PER
                 (UTC)          (F)     (DEG/KT/KT) (MB)    (MI)  (FT/S)
NY HARB ENTRANCE 1750            82 77  260/  4/  6 1010.3          2/ 6
20S FIRE ISLAND  1750            79 75  230/  8/ 10 1010.3          3/ 7
GREAT SOUTH BAY  1800            84 81  220/ 12/ 17   N/A
23 SSW MONTAUK P 1750            75 72  250/ 16/ 17 1009.7          4/ 7
15 E BARNEGAT LI 1822               76                N/A           2/ 6
HUDSON CANYON    1750            79 77              1010.9          4/ 8
KINGS POINT      1800            88 73              1009.6
EXECUTION ROCKS  1800            86     270/  8/ 14   N/A
CENTRAL LI SOUND 1800            78 72  250/ 10/ 14   N/A           1/ 3
EASTERN LI SOUND 1800            75 68  250/ 16/ 19   N/A
ROBBINS REEF     1800            89     290/ 13/ 16 1009.4
$$


>>>>>>>>>>>>>>>>>>>>>>>>>>>> KEY <<<<<<<<<<<<<<<<<<<<<<<<<<<
>                                                          <
>     SKY/WX - SKY CONDITION/PRESENT WEATHER               <
>     TMP    - TEMPERATURE IN FAHRENHEIT                   <
>     DP     - DEWPOINT IN FAHRENHEIT                      <
>     RH     - RELATIVE HUMIDITY IN PERCENT                <
>     WIND   - DIRECTION AND SPEED IN MPH                  <
>     PRES   - MEAN SEA LEVEL PRESSURE IN INCHES OF HG     <
>     WCI    - WIND CHILL INDEX                            <
>     VSB    - VISIBILITY IN MILES                         <
>     HX     - HEAT INDEX                                  <
>     TC     - TEMPERATURE IN CELSIUS                      <
>     VRB    - VARIABLE WIND DIRECTION                     <
>                                                          <
>>>>>>>>>>>>>>>>>>>>>>>>>>>> KEY <<<<<<<<<<<<<<<<<<<<<<<<<<<





USA.gov is the U.S. government's official web portal to all federal, state and local government web resources and services.